DELTA 1 DEB, 3975

Orbit data source: Space-Track

DELTA 1 DEB, 3975 is space debris in SSO originally from a launch on Fri, 16 Aug 1968 UTC launched from the Air Force Western Test Range (AFWTR). Debris objects in space refer to the collection of defunct objects orbiting the Earth. Examples of debris include non-operational satellites, rocket bodies, and fragments generated from explosions, collisions, or faulty payload assembly.

Loading next visibility...
Identifier
3975, 1968-069F
Orbit
SSO
Country
Flag of USUS
Related business
Manufacturer
Unknown
Mission
Spacecraft
Bus & Motor
Unknown
Mass
Unknown
Launch date (UTC)
1968-08-16 (58 years ago)
Launch vehicle
Unknown
Launch site
Air Force Western Test Range (AFWTR)
Object type
Payload
Rocket body
Debris
Shape & HBR
Unknown shape, 0.1 m
Radar Cross Section
Small (<0.1 m²)

Expand to show TLE details & history
Last TLE update: 3 days ago

TLE from 3 days ago
0 DELTA 1 DEB
1 03975U 68069F   26118.12653470 -.00000046  00000-0 -12238-4 0  9991
2 03975 101.5319 177.5570 0042621 262.4234 157.4201 12.53552075641732
Epoch: 2026-04-28T03:02Z
TLE epoch observation values (Epoch: 2026-04-28T03:02:12.598Z)
Latitude
58.17381°
Longitude
-103.19625°
Altitude
1,490.129 km
Speed
7.11 km/s
True Right ascension
10h 33m 51s
True Declination
58° 02' 02"
Sunlit
Object was in daylight at epoch
Visualization orbit readout
Latitude
Unknown
Longitude
Unknown
Altitude
Unknown
Speed
Unknown
Apparent Right ascension
Unknown
Apparent Declination
Unknown
Sunlit
N/A
Visualization observer readout
Local Sidereal Time
16:47:26
Azimuth
Unknown
Elevation
Unknown
Doppler factor
Unknown
Orbital elements
Apogee altitude
1,480.554 km
Perigee altitude
1,413.85 km
Semi-major axis
7,825.339 km
Eccentricity
0.00426
Inclination
101.5319°
RAAN
177.557°
Arg. of periapsis
262.4234°
True anomaly
157.60671°
Mean anomaly
157.4201°
Eccentric anomaly
157.5135°
Mean motion
3.13537 °/min
Orbital period
114.82 mins
BSTAR
-0.000012238
Loading maneuver chart data...
Computing Atmospheric mass density...
Loading historical data...
Loading historical data...
Loading historical data...
Loading historical data...
Loading historical data...
Loading historical data...
Loading historical data...

Documentation

Showing up to 5 results
|